Tracking 30995 objects as of 5-Jul-2025
HD Live streaming from Space Station
objects crossing your sky now

STARLINK-32739

Track STARLINK-32739 now!
10-day predictions
STARLINK-32739 is classified as:


NORAD ID: 62498
Int'l Code: 2025-003M
Perigee: 489.3 km
Apogee: 491.0 km
Inclination: 43.0 °
Period: 94.3 minutes
Semi major axis: 6861 km
RCS: Unknown
Launch date: January 6, 2025
Source: United States (US)
Launch site: AIR FORCE EASTERN TEST RANGE (AFETR)
Your satellite tracking list
Your tracking list is empty




NASA's NSSDC Master Catalog

Two Line Element Set (TLE):
1 62498U 25003M   25186.21411549  .00014624  00000-0  53981-3 0  9994
2 62498  43.0002 246.5564 0001226 273.6155  86.4556 15.27585996 28777
Source of the keplerian elements: AFSPC